Tracking 23764 objects as of 17-Oct-2021
HD Live streaming from Space Station
objects crossing your sky now

USA 207

Track USA 207 now!
USA 207 is classified as:


NORAD ID: 35815
Int'l Code: 2009-047A
Perigee: 35,757.9 km
Apogee: 35,825.6 km
Inclination: 0.0 °
Period: 1,436.0 minutes
Semi major axis: 42162 km
RCS: Unknown
Launch date: September 8, 2009
Source: United States (US)
Launch site: AIR FORCE EASTERN TEST RANGE (AFETR)

USA 207 is an U.S. government communications satellite
aabbcc
Your satellite tracking list
Your tracking list is empty




NASA's NSSDC Master Catalog

Two Line Element Set (TLE):
1 35815U 09047A   21251.84060332 0.00000000  00000-0  00000-0 0    02
2 35815   0.0198 343.6458 0008031  11.2193 348.5815  1.00278850    09
Source of the keplerian elements: McCants